Cloud_Cover
26 92 100 100 100 100 100 100 100 89 100 100 0 0 0 0 0 3 0 0 0 0 0 0 0 0 0 12 0 4 1 0 0 3 0 0 0 0 0 0 0 0 1 22 5 90 100 91 60
94 99 100 100 100 100 100 98 100 99 100 100 1 0 64 31 0 35 24 0 0 0 0 0 0 0 6 11 0 7 7 1 0 2 0 13 1 4 5 5 2 5 3 4 6 15 6 3 36
75 100 100 100 100 100 100 98 100 68 50 97 39 72 0 54 4 15 0 0 0 0 0 0 4 1 1 0 0 4 0 0 0 2 0 6 0 4 4 5 5 16 3 0 3 0 5 5 12
100 100 100 100 100 100 100 96 100 5 36 81 99 57 0 0 0 0 0 0 0 0 0 0 0 0 0 0 1 16 0 10 0 0 0 0 1 8 5 5 3 5 5 5 4 3 4 2 10
97 100 100 100 100 100 100 100 100 98 6 100 100 100 1 0 0 0 0 0 0 0 0 0 0 0 0 0 0 0 0 0 0 0 0 0 20 6 64 74 79 15 5 5 5 5 5 5 86
100 100 100 100 100 100 100 97 100 58 8 100 100 100 30 0 0 0 0 0 0 0 0 0 0 0 0 0 0 0 1 0 4 0 0 22 6 8 16 9 65 21 38 44 5 5 5 5 13
100 100 100 100 100 100 99 92 100 100 91 100 100 100 74 2 0 0 0 0 0 0 0 0 0 0 0 0 2 0 1 0 2 0 2 5 11 58 100 13 13 92 92 77 5 59 81 99 42
100 100 100 100 100 100 100 100 100 100 100 100 100 100 74 13 53 1 0 0 0 0 0 0 0 0 0 17 1 0 0 0 0 0 2 100 74 95 18 5 5 5 5 8 54 4 5 41 45
100 100 100 100 100 100 92 100 100 88 100 89 100 100 64 47 6 50 0 0 0 0 0 0 0 0 0 3 3 0 0 3 5 1 37 67 23 67 6 5 12 7 2 46 5 2 5 99 51
100 100 100 100 100 100 100 100 100 48 88 100 70 100 45 98 99 60 6 0 0 0 0 0 0 0 0 20 0 0 0 4 4 22 90 16 77 31 100 69 5 6 5 35 76 37 82 98 98
100 100 100 100 85 100 100 100 100 100 70 100 30 100 100 100 100 47 66 0 0 0 0 0 0 0 0 0 0 0 0 0 0 2 1 30 22 70 95 13 22 41 56 62 7 1 42 5 97
100 100 100 100 100 58 100 100 100 86 100 90 9 98 98 100 100 48 39 0 0 0 0 0 0 0 0 0 0 0 0 0 0 0 0 50 88 45 78 94 100 100 99 24 15 0 14 62 4
8 100 100 100 91 27 99 98 100 99 100 99 26 100 97 26 100 94 2 0 1 0 0 0 1 0 0 0 0 0 0 1 2 0 0 1 97 96 100 100 100 100 100 88 96 0 0 6 0
98 100 100 100 100 47 88 47 74 100 100 98 97 100 100 88 100 73 9 0 3 0 0 0 8 65 0 16 0 0 0 0 17 3 0 0 1 19 6 38 88 88 88 63 28 3 7 0 0
49 100 100 100 100 67 100 99 96 100 64 100 79 32 100 100 60 97 28 0 0 0 0 0 0 0 0 0 4 1 0 0 41 10 0 0 0 0 5 100 100 100 86 5 2 0 0 0 2
100 100 98 100 100 100 100 100 100 95 100 85 100 97 100 95 99 100 5 1 5 4 0 0 0 6 0 7 5 1 0 5 27 4 1 0 0 0 0 68 37 92 98 0 0 0 0 0 1
43 100 88 100 100 100 100 83 13 79 98 100 100 100 97 89 43 99 19 18 10 4 0 0 0 0 0 22 99 34 5 33 0 0 4 0 0 3 0 0 0 33 1 4 0 0 0 34 0
3 6 78 79 100 100 100 79 74 16 100 100 100 86 88 95 64 52 4 4 72 1 7 0 0 0 5 28 33 6 13 74 72 91 1 0 0 0 0 0 0 0 0 0 0 0 24 6 0
47 10 100 51 66 100 100 53 86 69 83 100 100 72 100 100 96 5 5 5 0 2 43 0 0 0 0 3 98 1 12 4 5 5 0 100 1 0 0 0 0 0 0 0 0 0 0 0 0
80 83 100 100 100 100 100 100 100 76 100 94 100 95 100 100 100 44 6 15 0 2 1 0 0 0 0 1 70 2 2 30 5 5 2 1 5 1 0 0 0 2 1 0 0 0 0 0 0
5 43 84 96 100 94 100 100 100 92 54 84 100 100 98 100 72 16 95 30 8 17 2 0 0 0 0 0 5 55 7 75 100 96 22 0 1 2 1 0 0 0 0 0 0 0 0 0 0
5 29 99 100 96 98 100 100 100 100 51 100 100 97 98 100 100 97 100 79 7 62 1 0 0 0 0 0 0 30 63 100 95 92 71 0 4 2 6 5 3 0 0 0 0 0 0 0 0
0 100 96 98 43 12 89 100 100 100 100 98 100 100 100 100 100 62 86 76 0 12 2 2 0 0 0 0 0 0 4 95 5 96 91 0 4 4 78 21 5 37 2 3 3 0 0 0 0
10 100 98 35 64 10 29 100 100 100 100 100 100 100 100 100 100 88 69 74 27 5 8 10 6 2 1 73 0 70 100 48 8 35 98 0 4 45 6 5 22 23 45 98 98 41 2 0 0
76 99 24 77 66 3 35 94 100 100 100 100 100 93 78 100 100 100 100 92 63 32 32 100 100 38 5 78 100 100 100 100 98 12 30 0 1 5 6 3 5 5 42 93 100 74 83 16 0
41 71 5 21 34 22 76 100 100 100 100 100 100 100 62 80 100 100 100 79 6 19 31 100 100 100 51 100 100 100 100 100 99 3 4 0 0 1 5 35 7 5 7 5 5 9 82 70 86
54 62 5 5 52 46 33 100 100 100 100 100 100 100 100 100 100 100 98 89 100 46 100 100 100 100 99 41 100 100 100 100 100 12 5 1 63 0 98 70 50 5 5 14 36 3 5 23 97
1 14 5 5 19 100 5 59 100 100 100 100 83 100 100 89 85 100 100 100 100 100 69 100 98 100 100 100 100 82 100 100 100 64 2 7 31 6 73 48 100 90 8 98 63 5 5 30 36
0 0 3 85 81 68 90 72 100 100 100 100 100 100 100 100 100 100 100 100 100 100 100 96 100 67 100 100 100 100 100 100 100 100 100 100 100 99 73 12 15 100 70 98 60 5 5 24 51
0 0 40 98 98 100 97 96 100 100 100 100 100 100 100 100 100 100 100 100 100 99 100 100 98 100 100 100 100 100 100 100 100 100 100 100 100 100 100 11 5 5 53 72 27 2 5 11 82